Time,TemperatureF,DewpointF,PressureIn,WindDirection,WindDirectionDegrees,WindSpeedMPH,WindSpeedGustMPH,Humidity,HourlyPrecipIn,Conditions,Clouds,dailyrainin,SoftwareType,DateUTC
2013-05-12 00:01:00,62.0,53.0,29.90,SSW,204,1.0,4.0,73,0.00,,,0.25,,2013-05-12 00:01:00,
2013-05-12 00:12:00,62.0,53.0,29.90,SSW,204,1.0,4.0,73,0.00,,,0.25,,2013-05-12 00:12:00,
2013-05-12 00:21:00,62.0,54.0,29.90,WSW,253,1.0,3.0,75,0.00,,,0.25,,2013-05-12 00:21:00,
2013-05-12 00:32:00,60.0,54.0,29.92,North,350,3.0,12.0,81,0.01,,,0.26,,2013-05-12 00:32:00,
2013-05-12 00:42:00,60.0,54.0,29.92,North,350,3.0,12.0,81,0.01,,,0.26,,2013-05-12 00:42:00,
2013-05-12 00:52:00,58.0,54.0,29.91,WNW,283,0.0,4.0,88,0.02,,,0.27,,2013-05-12 00:52:00,
2013-05-12 01:01:00,58.0,55.0,29.92,WNW,283,0.0,1.0,90,0.02,,,0.27,,2013-05-12 01:01:00,
2013-05-12 01:11:00,58.0,55.0,29.92,WNW,283,0.0,1.0,90,0.02,,,0.27,,2013-05-12 01:11:00,
2013-05-12 01:21:00,57.0,55.0,29.93,WNW,283,0.0,0.0,92,0.02,,,0.27,,2013-05-12 01:21:00,
2013-05-12 01:32:00,57.0,55.0,29.94,WNW,302,1.0,3.0,93,0.01,,,0.27,,2013-05-12 01:32:00,
2013-05-12 01:42:00,57.0,55.0,29.94,WNW,302,1.0,3.0,93,0.01,,,0.27,,2013-05-12 01:42:00,
2013-05-12 01:52:00,57.0,52.0,29.95,NW,320,5.0,17.0,84,0.00,,,0.27,,2013-05-12 01:52:00,
2013-05-12 02:01:00,56.0,49.0,29.96,NNW,334,6.0,11.0,76,0.00,,,0.27,,2013-05-12 02:01:00,
2013-05-12 02:12:00,56.0,49.0,29.96,NNW,334,6.0,11.0,76,0.00,,,0.27,,2013-05-12 02:12:00,
2013-05-12 02:22:00,55.0,47.0,29.97,NNW,328,5.0,9.0,74,0.00,,,0.27,,2013-05-12 02:22:00,
2013-05-12 02:32:00,54.0,44.0,29.98,NNW,332,4.0,8.0,70,0.00,,,0.27,,2013-05-12 02:32:00,
2013-05-12 02:42:00,54.0,43.0,29.99,NNW,342,2.0,8.0,67,0.00,,,0.27,,2013-05-12 02:42:00,
2013-05-12 02:52:00,54.0,43.0,29.99,NNW,342,2.0,8.0,67,0.00,,,0.27,,2013-05-12 02:52:00,
2013-05-12 03:01:00,53.0,43.0,30.00,NW,317,3.0,5.0,70,0.00,,,0.27,,2013-05-12 03:01:00,
2013-05-12 03:11:00,53.0,43.0,30.00,NW,317,3.0,5.0,70,0.00,,,0.27,,2013-05-12 03:11:00,
2013-05-12 03:22:00,52.0,43.0,30.00,NW,307,2.0,4.0,70,0.00,,,0.26,,2013-05-12 03:22:00,
2013-05-12 03:33:00,51.0,43.0,30.01,NW,317,2.0,3.0,75,0.00,,,0.26,,2013-05-12 03:33:00,
2013-05-12 03:43:00,51.0,43.0,30.01,NW,317,2.0,3.0,75,0.00,,,0.26,,2013-05-12 03:43:00,
2013-05-12 03:53:00,51.0,42.0,30.01,NW,304,2.0,4.0,72,0.00,,,0.26,,2013-05-12 03:53:00,
2013-05-12 04:03:00,-999.0,-99.9,30.02,NW,313,3.0,6.0,69,0.00,,,0.26,,2013-05-12 04:03:00,
2013-05-12 04:12:00,51.0,41.0,30.02,NW,313,3.0,6.0,69,0.00,,,0.26,,2013-05-12 04:12:00,
2013-05-12 04:22:00,51.0,41.0,30.03,WNW,295,3.0,6.0,68,0.00,,,0.07,,2013-05-12 04:22:00,
2013-05-12 04:33:00,50.0,39.0,30.03,North,351,4.0,7.0,67,0.00,,,0.07,,2013-05-12 04:33:00,
2013-05-12 04:43:00,50.0,39.0,30.03,North,351,4.0,7.0,67,0.00,,,0.07,,2013-05-12 04:43:00,
2013-05-12 04:52:00,51.0,38.0,30.03,NNW,329,3.0,10.0,62,0.00,,,0.07,,2013-05-12 04:52:00,
2013-05-12 05:02:00,50.0,38.0,30.04,NW,321,3.0,5.0,64,0.00,,,0.07,,2013-05-12 05:02:00,
2013-05-12 05:12:00,50.0,38.0,30.04,NW,321,3.0,5.0,64,0.00,,,0.07,,2013-05-12 05:12:00,
2013-05-12 05:22:00,49.0,38.0,30.04,NW,316,2.0,7.0,66,0.00,,,0.02,,2013-05-12 05:22:00,
2013-05-12 05:32:00,49.0,38.0,30.05,NW,317,3.0,6.0,65,0.00,,,0.02,,2013-05-12 05:32:00,
2013-05-12 05:42:00,49.0,38.0,30.05,NW,317,3.0,6.0,65,0.00,,,0.02,,2013-05-12 05:42:00,
2013-05-12 05:52:00,49.0,38.0,30.05,NNW,327,0.0,3.0,66,0.00,,,0.02,,2013-05-12 05:52:00,
2013-05-12 06:02:00,47.0,37.0,30.05,NNW,327,0.0,2.0,69,0.00,,,0.02,,2013-05-12 06:02:00,
2013-05-12 06:11:00,47.0,37.0,30.05,NNW,327,0.0,2.0,69,0.00,,,0.02,,2013-05-12 06:11:00,
2013-05-12 06:21:00,46.0,39.0,30.05,WNW,302,1.0,3.0,75,0.00,,,0.02,,2013-05-12 06:21:00,
2013-05-12 06:32:00,45.0,38.0,30.05,NW,309,1.0,3.0,77,0.00,,,0.02,,2013-05-12 06:32:00,
2013-05-12 06:42:00,45.0,38.0,30.05,NW,309,1.0,3.0,77,0.00,,,0.02,,2013-05-12 06:42:00,
2013-05-12 06:52:00,45.0,39.0,30.05,NW,309,2.0,3.0,78,0.00,,,0.02,,2013-05-12 06:52:00,
2013-05-12 07:01:00,44.0,38.0,30.05,NW,315,2.0,5.0,78,0.00,,,0.02,,2013-05-12 07:01:00,
2013-05-12 07:11:00,44.0,38.0,30.05,NW,315,2.0,5.0,78,0.00,,,0.02,,2013-05-12 07:11:00,
2013-05-12 07:22:00,45.0,38.0,30.05,NW,309,2.0,5.0,75,0.00,,,0.02,,2013-05-12 07:22:00,
2013-05-12 07:32:00,44.0,37.0,30.05,NW,314,2.0,4.0,76,0.00,,,0.02,,2013-05-12 07:32:00,
2013-05-12 07:42:00,44.0,37.0,30.05,NW,314,2.0,4.0,76,0.00,,,0.02,,2013-05-12 07:42:00,
2013-05-12 07:52:00,45.0,37.0,30.06,NW,310,4.0,6.0,72,0.00,,,0.02,,2013-05-12 07:52:00,
2013-05-12 08:02:00,45.0,37.0,30.05,NW,305,3.0,5.0,72,0.00,,,0.02,,2013-05-12 08:02:00,
2013-05-12 08:11:00,45.0,37.0,30.05,NW,305,3.0,5.0,72,0.00,,,0.02,,2013-05-12 08:11:00,
2013-05-12 08:21:00,44.0,37.0,30.05,NW,304,1.0,4.0,76,0.00,,,0.02,,2013-05-12 08:21:00,
2013-05-12 08:32:00,43.0,37.0,30.05,WNW,285,3.0,4.0,78,0.00,,,0.02,,2013-05-12 08:32:00,
2013-05-12 08:42:00,43.0,37.0,30.05,WNW,285,3.0,4.0,78,0.00,,,0.02,,2013-05-12 08:42:00,
2013-05-12 08:53:00,43.0,37.0,30.05,WNW,297,2.0,4.0,78,0.00,,,0.02,,2013-05-12 08:53:00,
2013-05-12 09:01:00,43.0,37.0,30.06,WNW,303,2.0,5.0,78,0.00,,,0.02,,2013-05-12 09:01:00,
2013-05-12 09:11:00,43.0,37.0,30.06,WNW,303,2.0,5.0,78,0.00,,,0.02,,2013-05-12 09:11:00,
2013-05-12 09:21:00,42.0,36.0,30.06,NW,306,3.0,5.0,79,0.00,,,0.02,,2013-05-12 09:21:00,
2013-05-12 09:33:00,42.0,36.0,30.06,WNW,303,2.0,4.0,79,0.00,,,0.02,,2013-05-12 09:33:00,
2013-05-12 09:43:00,42.0,36.0,30.06,WNW,303,2.0,4.0,79,0.00,,,0.02,,2013-05-12 09:43:00,
2013-05-12 09:53:00,42.0,36.0,30.06,NW,307,3.0,5.0,79,0.00,,,0.02,,2013-05-12 09:53:00,
2013-05-12 10:03:00,42.0,36.0,30.06,WNW,301,3.0,5.0,80,0.00,,,0.02,,2013-05-12 10:03:00,
2013-05-12 10:12:00,42.0,36.0,30.06,WNW,301,3.0,5.0,80,0.00,,,0.02,,2013-05-12 10:12:00,
2013-05-12 10:23:00,42.0,36.0,30.06,WNW,299,3.0,6.0,79,0.00,,,0.02,,2013-05-12 10:23:00,
2013-05-12 10:33:00,41.0,35.0,30.07,NW,304,3.0,6.0,79,0.00,,,0.02,,2013-05-12 10:33:00,
2013-05-12 10:42:00,41.0,35.0,30.07,NW,304,3.0,6.0,79,0.00,,,0.02,,2013-05-12 10:42:00,
2013-05-12 10:52:00,41.0,35.0,30.08,NW,319,3.0,6.0,79,0.00,,,0.02,,2013-05-12 10:52:00,
2013-05-12 11:02:00,42.0,36.0,30.08,NW,306,3.0,5.0,78,0.00,,,0.02,,2013-05-12 11:02:00,
2013-05-12 11:12:00,42.0,36.0,30.08,NW,306,3.0,5.0,78,0.00,,,0.02,,2013-05-12 11:12:00,
2013-05-12 11:22:00,41.0,35.0,30.09,NW,321,3.0,7.0,78,0.00,,,0.02,,2013-05-12 11:22:00,
2013-05-12 11:32:00,42.0,36.0,30.09,WNW,301,3.0,5.0,78,0.00,,,0.02,,2013-05-12 11:32:00,
2013-05-12 11:42:00,42.0,36.0,30.09,WNW,301,3.0,5.0,78,0.00,,,0.02,,2013-05-12 11:42:00,
2013-05-12 11:52:00,42.0,35.0,30.09,WNW,285,4.0,6.0,77,0.00,,,0.02,,2013-05-12 11:52:00,
2013-05-12 12:02:00,43.0,36.0,30.10,West,275,3.0,5.0,77,0.00,,,0.02,,2013-05-12 12:02:00,
2013-05-12 12:11:00,43.0,36.0,30.10,West,275,3.0,5.0,77,0.00,,,0.02,,2013-05-12 12:11:00,
2013-05-12 12:22:00,44.0,37.0,30.10,West,276,4.0,9.0,75,0.00,,,0.02,,2013-05-12 12:22:00,
2013-05-12 12:32:00,45.0,37.0,30.10,NW,318,4.0,9.0,73,0.00,,,0.02,,2013-05-12 12:32:00,
2013-05-12 12:42:00,45.0,37.0,30.10,NW,318,4.0,9.0,73,0.00,,,0.02,,2013-05-12 12:42:00,
2013-05-12 12:52:00,46.0,37.0,30.10,WNW,283,5.0,8.0,72,0.00,,,0.02,,2013-05-12 12:52:00,
2013-05-12 13:02:00,47.0,37.0,30.10,WSW,249,6.0,8.0,68,0.00,,,0.02,,2013-05-12 13:02:00,
2013-05-12 13:11:00,47.0,37.0,30.10,WSW,249,6.0,8.0,68,0.00,,,0.02,,2013-05-12 13:11:00,
2013-05-12 13:21:00,48.0,36.0,30.11,West,273,4.0,9.0,63,0.00,,,0.02,,2013-05-12 13:21:00,
2013-05-12 13:32:00,50.0,38.0,30.11,WNW,294,2.0,6.0,62,0.00,,,0.02,,2013-05-12 13:32:00,
2013-05-12 13:42:00,50.0,38.0,30.11,WNW,294,2.0,6.0,62,0.00,,,0.02,,2013-05-12 13:42:00,
2013-05-12 13:52:00,51.0,37.0,30.11,WNW,282,3.0,8.0,59,0.00,,,0.02,,2013-05-12 13:52:00,
2013-05-12 14:01:00,51.0,36.0,30.10,WSW,257,4.0,9.0,57,0.00,,,0.02,,2013-05-12 14:01:00,
2013-05-12 14:11:00,51.0,36.0,30.10,WSW,257,4.0,9.0,57,0.00,,,0.02,,2013-05-12 14:11:00,
2013-05-12 14:21:00,52.0,37.0,30.11,West,277,5.0,8.0,56,0.00,,,0.02,,2013-05-12 14:21:00,
2013-05-12 14:32:00,52.0,36.0,30.11,West,275,6.0,13.0,55,0.00,,,0.02,,2013-05-12 14:32:00,
2013-05-12 14:42:00,53.0,36.0,30.11,NNW,333,4.0,9.0,53,0.00,,,0.02,,2013-05-12 14:42:00,
2013-05-12 14:52:00,53.0,36.0,30.11,NNW,333,4.0,9.0,53,0.00,,,0.02,,2013-05-12 14:52:00,
2013-05-12 15:01:00,54.0,35.0,30.11,SW,230,3.0,10.0,48,0.00,,,0.02,,2013-05-12 15:01:00,
2013-05-12 15:11:00,54.0,35.0,30.11,SW,230,3.0,10.0,48,0.00,,,0.02,,2013-05-12 15:11:00,
2013-05-12 15:21:00,54.0,32.0,30.11,West,265,9.0,15.0,43,0.00,,,0.02,,2013-05-12 15:21:00,
2013-05-12 15:34:00,55.0,34.0,30.11,West,265,5.0,16.0,45,0.00,,,0.02,,2013-05-12 15:34:00,
2013-05-12 15:42:00,55.0,34.0,30.11,West,265,5.0,16.0,45,0.00,,,0.02,,2013-05-12 15:42:00,
2013-05-12 15:53:00,56.0,32.0,30.11,West,259,5.0,14.0,40,0.00,,,0.02,,2013-05-12 15:53:00,
2013-05-12 16:02:00,56.0,34.0,30.11,WNW,292,6.0,14.0,43,0.00,,,0.02,,2013-05-12 16:02:00,
2013-05-12 16:13:00,56.0,34.0,30.11,WNW,292,6.0,14.0,43,0.00,,,0.02,,2013-05-12 16:13:00,
2013-05-12 16:23:00,55.0,31.0,30.11,NNW,336,9.0,16.0,40,0.00,,,0.02,,2013-05-12 16:23:00,
2013-05-12 16:33:00,57.0,34.0,30.11,WNW,293,7.0,15.0,41,0.00,,,0.02,,2013-05-12 16:33:00,
2013-05-12 16:42:00,57.0,34.0,30.11,WNW,293,7.0,15.0,41,0.00,,,0.02,,2013-05-12 16:42:00,
2013-05-12 16:53:00,56.0,34.0,30.11,NNW,332,7.0,11.0,43,0.00,,,0.02,,2013-05-12 16:53:00,
2013-05-12 17:02:00,57.0,33.0,30.11,West,269,4.0,15.0,40,0.00,,,0.02,,2013-05-12 17:02:00,
2013-05-12 17:12:00,57.0,33.0,30.11,West,269,4.0,15.0,40,0.00,,,0.02,,2013-05-12 17:12:00,
2013-05-12 17:22:00,56.0,31.0,30.11,NNE,17,10.0,14.0,39,0.00,,,0.02,,2013-05-12 17:22:00,
2013-05-12 17:32:00,58.0,34.0,30.11,West,271,4.0,14.0,41,0.00,,,0.02,,2013-05-12 17:32:00,
2013-05-12 17:42:00,58.0,34.0,30.11,West,271,4.0,14.0,41,0.00,,,0.02,,2013-05-12 17:42:00,
2013-05-12 17:53:00,57.0,34.0,30.11,WNW,287,6.0,14.0,41,0.00,,,0.02,,2013-05-12 17:53:00,
2013-05-12 18:01:00,58.0,31.0,30.11,NNW,331,11.0,16.0,36,0.00,,,0.02,,2013-05-12 18:01:00,
2013-05-12 18:12:00,58.0,31.0,30.11,NNW,331,11.0,16.0,36,0.00,,,0.02,,2013-05-12 18:12:00,
2013-05-12 18:22:00,59.0,31.0,30.10,West,262,9.0,18.0,35,0.00,,,0.02,,2013-05-12 18:22:00,
2013-05-12 18:32:00,59.0,30.0,30.10,NW,308,9.0,15.0,33,0.00,,,0.02,,2013-05-12 18:32:00,
2013-05-12 18:42:00,59.0,30.0,30.10,NW,308,9.0,15.0,33,0.00,,,0.02,,2013-05-12 18:42:00,
2013-05-12 18:52:00,58.0,28.0,30.09,WNW,291,6.0,21.0,31,0.00,,,0.02,,2013-05-12 18:52:00,
2013-05-12 19:01:00,58.0,29.0,30.09,NW,319,10.0,18.0,33,0.00,,,0.02,,2013-05-12 19:01:00,
2013-05-12 19:11:00,58.0,29.0,30.09,NW,319,10.0,18.0,33,0.00,,,0.02,,2013-05-12 19:11:00,
2013-05-12 19:22:00,60.0,31.0,30.09,NW,323,7.0,16.0,33,0.00,,,0.02,,2013-05-12 19:22:00,
2013-05-12 19:32:00,60.0,32.0,30.09,West,281,8.0,15.0,34,0.00,,,0.02,,2013-05-12 19:32:00,
2013-05-12 19:42:00,60.0,32.0,30.09,West,281,8.0,15.0,34,0.00,,,0.02,,2013-05-12 19:42:00,
2013-05-12 19:52:00,60.0,31.0,30.09,NNE,13,7.0,15.0,33,0.00,,,0.02,,2013-05-12 19:52:00,
2013-05-12 20:02:00,59.0,31.0,30.09,SSW,209,5.0,12.0,34,0.00,,,0.02,,2013-05-12 20:02:00,
2013-05-12 20:11:00,59.0,31.0,30.09,SSW,209,5.0,12.0,34,0.00,,,0.02,,2013-05-12 20:11:00,
2013-05-12 20:22:00,59.0,31.0,30.10,WNW,298,7.0,14.0,35,0.00,,,0.02,,2013-05-12 20:22:00,
2013-05-12 20:32:00,59.0,29.0,30.09,NNW,341,5.0,15.0,32,0.00,,,0.02,,2013-05-12 20:32:00,
2013-05-12 20:42:00,59.0,29.0,30.09,NNW,341,5.0,15.0,32,0.00,,,0.02,,2013-05-12 20:42:00,
2013-05-12 20:52:00,59.0,30.0,30.09,NNW,334,7.0,21.0,33,0.00,,,0.02,,2013-05-12 20:52:00,
2013-05-12 21:01:00,59.0,30.0,30.09,NNW,346,10.0,19.0,33,0.00,,,0.02,,2013-05-12 21:01:00,
2013-05-12 21:11:00,59.0,30.0,30.09,NNW,346,10.0,19.0,33,0.00,,,0.02,,2013-05-12 21:11:00,
2013-05-12 21:21:00,59.0,30.0,30.09,West,281,10.0,15.0,33,0.00,,,0.02,,2013-05-12 21:21:00,
2013-05-12 21:33:00,59.0,31.0,30.09,NNW,335,5.0,10.0,35,0.00,,,0.02,,2013-05-12 21:33:00,
2013-05-12 21:42:00,59.0,31.0,30.09,NNW,335,5.0,10.0,35,0.00,,,0.02,,2013-05-12 21:42:00,
2013-05-12 21:53:00,59.0,31.0,30.09,NW,315,5.0,13.0,35,0.00,,,0.02,,2013-05-12 21:53:00,
2013-05-12 22:02:00,60.0,32.0,30.09,NNW,332,5.0,13.0,35,0.00,,,0.02,,2013-05-12 22:02:00,
2013-05-12 22:12:00,60.0,32.0,30.09,NNW,332,5.0,13.0,35,0.00,,,0.02,,2013-05-12 22:12:00,
2013-05-12 22:23:00,60.0,31.0,30.09,NW,306,8.0,13.0,33,0.00,,,0.02,,2013-05-12 22:23:00,
2013-05-12 22:33:00,59.0,30.0,30.09,NW,313,3.0,13.0,33,0.00,,,0.02,,2013-05-12 22:33:00,
2013-05-12 22:42:00,59.0,30.0,30.09,NW,313,3.0,13.0,33,0.00,,,0.02,,2013-05-12 22:42:00,
2013-05-12 22:52:00,58.0,29.0,30.08,NNW,327,6.0,13.0,33,0.00,,,0.02,,2013-05-12 22:52:00,
2013-05-12 23:02:00,58.0,31.0,30.09,West,271,5.0,12.0,35,0.00,,,0.02,,2013-05-12 23:02:00,
2013-05-12 23:12:00,58.0,31.0,30.09,West,271,5.0,12.0,35,0.00,,,0.02,,2013-05-12 23:12:00,
2013-05-12 23:22:00,58.0,30.0,30.09,NW,304,3.0,14.0,34,0.00,,,0.02,,2013-05-12 23:22:00,
2013-05-12 23:32:00,58.0,30.0,30.09,West,267,4.0,9.0,34,0.00,,,0.02,,2013-05-12 23:32:00,
2013-05-12 23:42:00,58.0,30.0,30.09,West,267,4.0,9.0,34,0.00,,,0.02,,2013-05-12 23:42:00,
2013-05-12 23:52:00,57.0,30.0,30.09,NW,304,4.0,11.0,36,0.00,,,0.02,,2013-05-12 23:52:00,